Simultaneous Nadir Overpasses (SNOs) Predictions

Prediction of SNOs between GOES-14 and NPP Satellite Orbit:

Table of predicted SNOs for the next 14.0 days since TLE Epoch: 9/7/2024
Index Date Time (GOES-14) GOES-14 Lat,Lon NPP Lat,Lon Distance(km) Time Diff (sec)
1 09/07/2024 20:40:10 0.00,-108.35 -0.19,-109.15 92.25 80
2 09/08/2024 20:24:04 0.00,-108.35 0.85,-104.62 425.31 80
3 09/10/2024 08:45:50 -0.01,-108.41 0.34,-109.88 168.61 80
4 09/11/2024 08:24:24 -0.00,-108.40 -0.70,-105.35 348.14 80
5 09/12/2024 20:46:18 0.01,-108.35 -0.48,-110.65 261.63 80
6 09/13/2024 20:30:12 0.01,-108.35 0.52,-106.11 255.58 80
7 09/15/2024 08:51:57 -0.01,-108.41 0.65,-111.37 337.69 80
8 09/16/2024 08:30:31 -0.01,-108.40 -0.36,-106.83 179.15 80
9 09/17/2024 20:52:24 0.01,-108.34 -0.84,-112.12 431.04 80
10 09/18/2024 20:36:18 0.01,-108.34 0.17,-107.58 86.47 80
